THOR AGENA B DEB, 1948

Orbit data source: Space-Track

THOR AGENA B DEB, 1948 is space debris in LEO originally from a launch on Mon, 29 Nov 1965 UTC launched from the Air Force Western Test Range (AFWTR). Debris objects in space refer to the collection of defunct objects orbiting the Earth. Examples of debris include non-operational satellites, rocket bodies, and fragments generated from explosions, collisions, or faulty payload assembly.

Loading next visibility...
Identifier
1948, 1965-098F
Orbit
LEO
Country
Flag of USUS
Related business
Manufacturer
Unknown
Mission
Spacecraft
Bus & Motor
Unknown
Mass
~1 kg wet, ~1 kg dry
Launch date (UTC)
1965-11-29 (60 years ago)
Launch vehicle
Unknown
Launch site
Air Force Western Test Range (AFWTR)
Object type
Payload
Rocket body
Debris
Shape & HBR
Unknown
Radar Cross Section
Medium (>0.1 m² and <1 m²)

Expand to show TLE details & history
Last TLE update: 11 hours ago

TLE from 11 hours ago
0 THOR AGENA B DEB
1 01948U 65098F   26073.28803492  .00004460  00000-0  81127-3 0  9990
2 01948  79.8488  15.8510 0753772 132.2409 234.5254 13.60262364796268
Epoch: 2026-03-14T06:54Z
TLE epoch observation values (Epoch: 2026-03-14T06:54:46.217Z)
Latitude
-0°
Longitude
100.24706°
Altitude
1,388.047 km
Speed
6.994 km/s
True Right ascension
01h 03m 24s
True Declination
0° 00' 00"
Sunlit
Object was in daylight at epoch
Visualization orbit readout
Latitude
Unknown
Longitude
Unknown
Altitude
Unknown
Speed
Unknown
Apparent Right ascension
Unknown
Apparent Declination
Unknown
Sunlit
N/A
Visualization observer readout
Local Sidereal Time
22:38:43
Azimuth
Unknown
Elevation
Unknown
Doppler factor
Unknown
Orbital elements
Apogee altitude
1,590.585 km
Perigee altitude
473.47 km
Semi-major axis
7,410.164 km
Eccentricity
0.07538
Inclination
79.8488°
RAAN
15.851°
Arg. of periapsis
132.2409°
True anomaly
227.87145°
Mean anomaly
234.5254°
Eccentric anomaly
231.16142°
Mean motion
3.40253 °/min
Orbital period
105.8 mins
BSTAR
0.00081127
Loading maneuver chart data...
Computing Atmospheric mass density...
Loading historical data...
Loading historical data...
Loading historical data...
Loading historical data...
Loading historical data...
Loading historical data...
Loading historical data...

Documentation

Showing up to 5 results
|